• Join FlightAware (Why Join?)
  • Login
  • US Flag GB Flag 
00:42 EST


 

Airport Tracker/Info


-or-


 

Live Flight TrackerFlight Track Log ✈ AAY843 ✈ 02-Jan-2014 ✈ KPHF - KPIE

Flight Track Log - Related Links

Times and Time Zones

All times are in EST time to prevent confusion due to time zone crossing. See the AAY843 flight status page for this flight to view local times or setup timezone preferences in your user account.

Time Position Orientation Groundspeed Altitude Reporting Facility
EST Latitude Longitude Course Direction KTS MPH feet Rate Location/Type
16:14 37.1183 -76.5192 238° Southwest 178 205 1,200  Level Washington Center
16:14 37.1056 -76.5450 238° Southwest 180 207 2,100 1,800 Climbing Washington Center
16:15 37.0697 -76.5914 226° Southwest 225 259 4,000 1,740 Climbing Washington Center
16:16 37.0236 -76.6456 223° Southwest 225 259 5,700 2,400 Climbing Washington Center
16:17 36.9750 -76.6994 222° Southwest 231 266 8,900 2,760 Climbing Washington Center
16:18 36.9264 -76.7558 223° Southwest 236 272 11,200 1,860 Climbing Washington Center
16:19 36.8717 -76.8253 225° Southwest 261 300 12,600 1,620 Climbing Washington Center
16:20 36.8039 -76.9044 223° Southwest 298 343 14,600 2,520 Climbing Washington Center
16:21 36.7364 -76.9864 224° Southwest 326 375 17,700 2,580 Climbing Washington Center
16:22 36.6483 -77.0236 199° South 332 382 19,800 1,860 Climbing Washington Center
16:23 36.5519 -77.0450 190° South 343 395 21,500 1,680 Climbing Washington Center
16:24 36.4597 -77.0847 199° South 348 400 23,200 1,740 Climbing Washington Center
16:25 36.3717 -77.1269 201° Southwest 348 400 25,100 1,680 Climbing Washington Center
16:26 36.2814 -77.1664 199° South 348 400 26,600 1,500 Climbing Washington Center
16:27 36.1911 -77.2056 199° South 348 400 28,100 1,500 Climbing Washington Center
16:28 36.1156 -77.2375 199° South 342 394 29,700 900 Climbing Washington Center
16:29 36.0294 -77.2769 200° South 337 388 30,000 120 Climbing Washington Center
16:30 35.9372 -77.3158 199° South 342 394 30,000  Level Washington Center
16:31 35.8447 -77.3550 199° South 348 400 30,000 60 Level Washington Center
16:32 35.7706 -77.4225 216° Southwest 343 395 30,200 780 Climbing Washington Center
16:33 35.7008 -77.4900 218° Southwest 337 388 31,600 840 Climbing Washington Center
16:34 35.6289 -77.5547 216° Southwest 332 382 32,000 180 Climbing Washington Center
16:35 35.5544 -77.6269 218° Southwest 332 382 32,000  Level Washington Center
16:36 35.4803 -77.6964 217° Southwest 332 382 32,000  Level Washington Center
16:37 35.4061 -77.7708 219° Southwest 344 396 32,000  Level Washington Center
16:38 35.3233 -77.8450 216° Southwest 344 396 32,000  Level Washington Center
16:39 35.2467 -77.9142 216° Southwest 344 396 32,000  Level Washington Center
16:40 35.1722 -77.9856 218° Southwest 349 402 32,000  Level Washington Center
16:41 35.0958 -78.0544 216° Southwest 349 402 32,000  Level Washington Center
16:42 35.0214 -78.1256 218° Southwest 349 402 32,000  Level Washington Center
16:43 34.9447 -78.1942 216° Southwest 349 402 32,000  Level Washington Center
16:44 34.8700 -78.2653 218° Southwest 349 402 32,000  Level Washington Center
16:45 34.8039 -78.3364 221° Southwest 349 402 32,000  Level Washington Center
16:47 34.6233 -78.4925 215° Southwest 350 403 32,000  Level Jacksonville Center
16:48 34.5464 -78.5619 217° Southwest 355 409 32,000  Level Jacksonville Center
16:49 34.4636 -78.6442 219° Southwest 350 403 32,000  Level Jacksonville Center
16:50 34.3867 -78.7133 217° Southwest 350 403 32,000  Level Jacksonville Center
16:51 34.3100 -78.7850 218° Southwest 350 403 32,000  Level Jacksonville Center
16:52 34.2394 -78.8611 222° Southwest 350 403 32,000  Level Jacksonville Center
16:53 34.1667 -78.9372 221° Southwest 355 409 32,000  Level Jacksonville Center
16:54 34.0939 -79.0133 221° Southwest 350 403 32,000  Level Jacksonville Center
16:55 34.0211 -79.0867 220° Southwest 350 403 32,000  Level Jacksonville Center
16:56 33.9503 -79.1625 222° Southwest 350 403 32,000  Level Jacksonville Center
16:57 33.8753 -79.2356 219° Southwest 350 403 32,000  Level Jacksonville Center
16:58 33.8022 -79.3111 221° Southwest 350 403 32,000 -60 Level Jacksonville Center
16:59 33.7292 -79.3864 221° Southwest 350 403 31,900  Descending Jacksonville Center
17:00 33.6644 -79.4539 221° Southwest 336 387 32,000  Climbing Jacksonville Center
17:01 33.5914 -79.5292 221° Southwest 336 387 32,000  Level Jacksonville Center
17:02 33.5203 -79.6042 221° Southwest 342 394 32,000  Level Jacksonville Center
17:03 33.4489 -79.6764 220° Southwest 342 394 32,000  Level Jacksonville Center
17:04 33.3758 -79.7511 221° Southwest 342 394 32,000  Level Jacksonville Center
17:05 33.3025 -79.8233 219° Southwest 348 400 32,000  Level Jacksonville Center
17:06 33.2311 -79.8978 221° Southwest 348 400 32,000  Level Jacksonville Center
17:07 33.1597 -79.9697 220° Southwest 348 400 32,000  Level Jacksonville Center
17:08 33.0864 -80.0414 219° Southwest 348 400 32,000  Level Jacksonville Center
17:09 33.0211 -80.1106 222° Southwest 348 400 32,000  Level Jacksonville Center
17:10 32.9536 -80.1769 220° Southwest 343 395 32,000  Level Jacksonville Center
17:11 32.8739 -80.2561 220° Southwest 351 404 32,000  Level Jacksonville Center
17:12 32.8044 -80.3272 221° Southwest 351 404 32,000  Level Jacksonville Center
17:13 32.7286 -80.4008 219° Southwest 351 404 32,000  Level Jacksonville Center
17:14 32.6569 -80.4744 221° Southwest 351 404 32,000  Level Jacksonville Center
17:15 32.5811 -80.5481 219° Southwest 351 404 32,000  Level Jacksonville Center
17:16 32.5094 -80.6214 221° Southwest 351 404 32,000  Level Jacksonville Center
17:17 32.4336 -80.6969 220° Southwest 351 404 32,000  Level Jacksonville Center
17:18 32.3636 -80.7675 220° Southwest 340 391 32,000  Level Jacksonville Center
17:19 32.2794 -80.8506 220° Southwest 351 404 32,000  Level Jacksonville Center
17:20 32.2056 -80.9233 220° Southwest 351 404 32,000  Level Jacksonville Center
17:21 32.1375 -80.9886 219° Southwest 351 404 32,000  Level Jacksonville Center
17:22 32.0614 -81.0589 218° Southwest 351 404 32,000  Level Jacksonville Center
17:23 31.9833 -81.1389 221° Southwest 356 410 32,000  Level Jacksonville Center
17:24 31.9069 -81.2136 220° Southwest 356 410 32,000  Level Jacksonville Center
17:25 31.8244 -81.2958 220° Southwest 353 406 32,000  Level Jacksonville Center
17:26 31.7481 -81.3681 219° Southwest 353 406 32,000  Level Jacksonville Center
17:27 31.6800 -81.4350 220° Southwest 358 412 32,000  Level Jacksonville Center
17:28 31.5953 -81.5169 219° Southwest 358 412 32,000  Level Jacksonville Center
17:29 31.5231 -81.5861 219° Southwest 370 426 32,000  Level Jacksonville Center
17:30 31.4361 -81.6703 220° Southwest 375 432 32,000  Level Jacksonville Center
17:31 31.3597 -81.7442 220° Southwest 370 426 32,000  Level Jacksonville Center
17:32 31.2850 -81.8181 220° Southwest 376 433 32,000  Level Jacksonville Center
17:33 31.2064 -81.8942 220° Southwest 376 433 32,000  Level Jacksonville Center
17:34 31.1275 -81.9703 220° Southwest 376 433 32,000  Level Jacksonville Center
17:35 31.0489 -82.0439 219° Southwest 371 427 32,000  Level Jacksonville Center
17:36 30.9700 -82.1172 219° Southwest 371 427 32,000  Level Jacksonville Center
17:37 30.8828 -82.1978 218° Southwest 371 427 32,000  Level Jacksonville Center
17:38 30.8078 -82.2708 220° Southwest 371 427 32,000  Level Jacksonville Center
17:39 30.7289 -82.3439 219° Southwest 371 427 32,000  Level Jacksonville Center
17:40 30.6497 -82.4192 219° Southwest 371 427 32,000  Level Jacksonville Center
17:41 30.5686 -82.4944 219° Southwest 371 427 32,000 -240 Level Jacksonville Center
17:42 30.4789 -82.5431 205° Southwest 361 415 31,600 -660 Descending Jacksonville Center
17:43 30.3642 -82.5267 173° South 369 425 30,700 -960 Descending Jacksonville Center
17:44 30.2556 -82.5031 169° South 385 443 29,700 -1,020 Descending Jacksonville Center
17:45 30.1469 -82.4747 167° South 397 457 28,700 -1,020 Descending Jacksonville Center
17:46 30.0444 -82.4197 155° Southeast 402 463 27,700 -900 Descending Jacksonville Center
17:47 29.9461 -82.4036 172° South 395 455 26,900 -420 Descending Jacksonville Center
17:48 29.8417 -82.3922 175° South 390 449 26,900 -540 Level Jacksonville Center
17:49 29.7353 -82.3758 172° South 390 449 25,900 -1,020 Descending Jacksonville Center
17:50 29.6369 -82.3644 174° South 380 437 24,900 -960 Descending Jacksonville Center
17:51 29.5408 -82.3531 174° South 368 423 24,000 -540 Descending Jacksonville Center
17:52 29.4469 -82.3417 174° South 348 400 23,900 -240 Descending Jacksonville Center
17:53 29.3550 -82.3328 175° South 343 395 23,600 -780 Descending Jacksonville Center
17:54 29.2631 -82.3189 172° South 338 389 22,400 -1,380 Descending Jacksonville Center
17:55 29.1711 -82.3075 174° South 338 389 20,900 -1,800 Descending Jacksonville Center
17:56 29.0836 -82.2986 175° South 328 377 18,900 -1,920 Descending Jacksonville Center
17:57 28.9958 -82.2894 175° South 328 377 17,100 -1,920 Descending Jacksonville Center
17:58 28.9019 -82.2783 174° South 321 369 15,100 -1,500 Descending Jacksonville Center
18:00 28.7500 -82.2667 176° South 284 327 13,000 -780 Descending Tampa TRACON
18:01 28.6833 -82.2500 168° South 270 311 13,000 -480 Level Tampa TRACON
18:02 28.6167 -82.2500 180° South 272 313 12,100 -1,380 Descending Tampa TRACON
18:03 28.5500 -82.2667 192° South 256 295 10,400 -1,080 Descending Tampa TRACON
18:04 28.5333 -82.3500 257° West 254 292 10,000 -240 Descending Tampa TRACON
18:05 28.5333 -82.4333 270° West 261 300 10,000  Level Tampa TRACON
18:06 28.4833 -82.5167 236° Southwest 251 289 10,000  Level Tampa TRACON
18:07 28.4333 -82.5667 221° Southwest 251 289 10,000  Level Tampa TRACON
18:08 28.4000 -82.6500 246° West 255 293 10,000  Level Tampa TRACON
18:09 28.3667 -82.7167 240° Southwest 250 288 10,000 -540 Level Tampa TRACON
18:10 28.3500 -82.7833 254° West 250 288 9,000 -1,440 Descending Tampa TRACON
18:11 28.3167 -82.8500 240° Southwest 242 278 7,300 -1,200 Descending Tampa TRACON
18:12 28.2667 -82.8833 210° Southwest 257 296 6,700 -900 Descending Tampa TRACON
18:13 28.1833 -82.8833 180° South 266 306 5,600 -1,080 Descending Tampa TRACON
18:14 28.1000 -82.8667 170° South 269 310 4,500 -720 Descending Tampa TRACON
18:15 28.0333 -82.8333 156° South 270 311 4,100 -240 Descending Tampa TRACON
18:16 27.9667 -82.8167 168° South 233 268 4,100 -540 Level Tampa TRACON
18:17 27.9167 -82.8000 164° South 230 265 3,200 -900 Descending Tampa TRACON
18:18 27.8500 -82.7833 168° South 211 243 2,400 -780 Descending Tampa TRACON
18:19 27.8333 -82.7333 111° Southeast 204 235 1,600 -600 Descending Tampa TRACON
18:20 27.8333 -82.6833 90° East 158 182 1,200 -540 Descending Tampa TRACON
18:21 27.8833 -82.6833 360° North 127 146 500 -660 Descending Tampa TRACON
18:23 27.9000 -82.6833 310° West  Level FlightAware Approximate
18:30 27.9100 -82.6875 310° West  Level Estimated
18:31 27.9100 -82.6875 310° West  Level Estimated